Hourly Data Report for March 14, 2013

SUDBURY A
ONTARIO

46°37'32.000" N
80°47'52.000" W
348.40 m
6068153
71730
YSB

Download Data

Hourly Data (March 2013)
Hourly Data Report for March 14, 2013
TIME
LST
Temp Definition
°C
Dew Point Definition
°C
Rel Hum Definition
%
Precip. Amount Definition
mm

Wind Dir Definition
10's deg

Wind Spd Definition
km/h
Visibility Definition
km
Stn Press Definition
kPa
Hmdx Definition


Wind Chill Definition


Weather Definition


00:00 -12.8 -15.0 84   31 13 24.1 97.29   -20 Snow
01:00 -12.4 -15.6 77   32 16 24.1 97.31   -20 Snow
02:00 -13.0 -15.9 79   31 25 24.1 97.31   -23 Snow
03:00 -13.7 -18.2 69   31 28 24.1 97.36   -24 LegendNANA
04:00 -14.7 -19.7 66   31 24 24.1 97.38   -25 Clear
05:00 -15.5 -20.2 68   31 15 24.1 97.40   -24 LegendNANA
06:00 -16.4 -20.7 70   30 17 24.1 97.43   -25 LegendNANA
07:00 -17.0 -21.4 69   31 15 32.2 97.46   -25 Mainly Clear
08:00 -15.9 -21.6 62   30 20 32.2 97.47   -25 LegendNANA
09:00 -13.3 -22.2 48   32 28 32.2 97.53   -24 LegendNANA
10:00 -10.6 -21.8 40   32 21 32.2 97.54   -19 Mainly Clear
11:00 -8.8 -22.0 34   32 28 32.2 97.54   -18 LegendNANA
12:00 -7.2 -21.3 32   32 26 32.2 97.50   -15 LegendNANA
13:00 -5.6 -19.2 34   32 28 32.2 97.48   -14 Mainly Clear
14:00 -4.9 -17.5 37   31 26 32.2 97.42   -12 LegendNANA
15:00 -4.3 -16.3 39   31 28 32.2 97.37   -12 LegendNANA
16:00 -3.9 -16.0 39   29 24 32.2 97.38   -11 Mainly Clear
17:00 -4.3 -15.7 41   30 14 32.2 97.36   -9 LegendNANA
18:00 -5.1 -14.5 48   29 14 32.2 97.33   -10 LegendNANA
19:00 -6.0 -14.6 51   29 8 24.1 97.33   -10 Mainly Clear
20:00 -6.1 -14.7 51   29 6 24.1 97.24   -9 LegendNANA
21:00 -5.8 -13.7 54   19 5 24.1 97.15   -8 LegendNANA
22:00 -5.7 -11.9 62   23 13 24.1 97.10   -11 Cloudy
23:00 -6.5 -12.0 65   22 11 24.1 97.01   -11 LegendNANA

Notes on Data Quality.

Legend

  • E = Estimated
  • M = Missing
  • NA = Not Available*
  • [empty] = Indicates an unobserved value
Date modified: